Location: Unspecified
(0.0000°N, 0.0000°E)
Time: 22:39:54
(UTC+00:00)

ISS - Pass Details

Date: 26 April 2018
Orbit: 403 x 406 km, 51.6° (Epoch: 25 April)

Event Time Altitude Azimuth Distance (km) Brightness Sun altitude
Exits shadow 04:20:53 30° 27° (NNE) 745 -2.2 -23.5°
Drops below altitude 10° 04:22:40 10° 32° (NNE) 1,442 -0.5 -23.1°
Sets 04:24:44 0° 33° (NNE) 2,297 0.7 -22.6°
